186  
ASUS46 KSEW 240210  
RWRWA  
 
WASHINGTON REGIONAL WEATHER ROUNDUP  
NATIONAL WEATHER SERVICE SEATTLE WA  
700 PM PDT THU MAR 23 2017  
 
NOTE:"FAIR" INDICATES FEW OR NO CLOUDS BELOW 12,000 FEET WITH NO  
SIGNIFICANT WEATHER AND/OR S TO VISIBILITY
.  
 
WAZ507-509-555>559-240300-  
SEATTLE, TACOMA, EVERETT, AND VICINITY  
 
CITY SKY/WX TMP DP RH WIND PRES REMARKS
 
EVERETT CLOUDY 52 34 50 S9 29.90F  
BOEING FIELD CLOUDY 54 37 52 W6 29.91S  
RENTON CLOUDY 55 35 47 S3 29.91S  
SEATAC AIRPORT CLOUDY 53 35 50 SW8 29.92S  
JBLM-MCCHORD LGT RAIN 52 39 62 S15G24 29.92R  
PUYALLUP DRIZZLE 54 34 47 VRB6 29.91F  
BREMERTON CLOUDY 46 41 81 S9G17 29.95S  
JBLM-FT LEWIS LGT RAIN 50 43 79 S12 29.91S  
TACOMA NARROWS LGT RAIN 50 38 63 S10G20 29.92R  

 
 
WAZ001-503-506-510-514-515-240300-  
NORTH INTERIOR  
 
CITY SKY/WX TMP DP RH WIND PRES REMARKS
 
BELLINGHAM CLOUDY 51 39 63 NE6 29.89F  
FRIDAY HARBOR CLOUDY 52 36 54 E14G26 29.87F  
EASTSOUND CLOUDY 54 32 43 SE7G21 29.86F  
PORT ANGELES CLOUDY 45 38 76 N6 29.82F  
EDIZ HOOK CLOUDY 46 39 77 SW3 29.83F  
PORT TOWNSEND CLOUDY 52 36 54 S14 29.88S  
NAS WHIDBEY CLOUDY 54 32 43 SE10 29.92F  
ARLINGTON CLOUDY 52 32 46 CALM 29.92S  
BURLINGTON CLOUDY 50 37 62 CALM 29.89F  

 
 
WAZ020-022-039-040-504-511-512-240300-  
SOUTHWEST INTERIOR  
 
CITY SKY/WX TMP DP RH WIND PRES REMARKS
 
SHELTON LGT RAIN 47 41 80 S6 29.91S  
OLYMPIA LGT RAIN 47 43 86 SE6 29.92S  
CHEHALIS DRIZZLE 48 43 81 S3 29.91F  
KELSO LGT RAIN 50 43 77 VRB3 29.90F  
VANCOUVER LGT RAIN 54 41 61 S8 29.92R  
SCAPPOOSE, OR LGT RAIN 52 40 63 S10G20 29.91R  
PORTLAND, OR LGT RAIN 54 39 57 S12 29.92R  

 
 
WAZ021-516-517-240300-  
WASHINGTON COAST  
 
CITY SKY/WX TMP DP RH WIND PRES REMARKS
 
FORKS LGT RAIN 44 42 93 SE12G22 29.81F  
HOQUIAM CLOUDY 46 44 93 NE13 29.86F  
ASTORIA, OR LGT RAIN 47 43 86 SE3 29.86F  

 
 
WAZ019-023-024-040-567>569-240300-  
CASCADE MOUNTAINS AND COLUMBIA GORGE  
 
CITY SKY/WX TMP DP RH WIND PRES REMARKS
 
STAMPEDE PASS NOT AVBL  
TROUTDALE, OR CLOUDY 56 36 47 CALM 29.91S  
THE DALLES, OR CLOUDY 54 39 57 CALM 29.92F  

 
 
WAZ026-027-041>044-520-521-240300-  
EAST SLOPES  
 
CITY SKY/WX TMP DP RH WIND PRES REMARKS
 
OMAK MOCLDY 50 26 39 S9 29.99F  
WENATCHEE PTCLDY 50 29 44 E8 29.97S  
ELLENSBURG PTCLDY 49 30 48 MISG 29.95S  
YAKIMA MOCLDY 54 32 43 VRB3 29.96F  
SUNNYSIDE ARPT PTCLDY 51 33 49 NE6 29.95F  

 
 
WAZ028-034-035-240300-  
COLUMBIA BASIN  
 
CITY SKY/WX TMP DP RH WIND PRES REMARKS
 
EPHRATA CLOUDY 49 29 46 SE5 29.99S  
MOSES LAKE CLOUDY 49 32 52 SE6 30.01S  
PASCO PTCLDY 53 34 48 NE8 29.98F  
HERMISTON, OR PTCLDY 53 38 56 NE12 29.95F  

 
 
WAZ036>038-240300-  
NORTHEAST WASHINGTON  
 
CITY SKY/WX TMP DP RH WIND PRES REMARKS
 
SPOKANE GEIGER PTCLDY 46 27 47 S5 30.02S  
SPOKANE FELTS CLEAR 48 28 46 S6 30.03  
FAIRCHILD AFB CLEAR 44 30 59 S6 30.01F  
COEURDALENE,ID PTCLDY 44 28 53 S5 30.04S  
DEER PARK CLEAR 45 29 53 CALM 30.03F  

 
 
WAZ029>033-240300-  
SOUTHEAST WASHINGTON  
 
CITY SKY/WX TMP DP RH WIND PRES REMARKS
 
PULLMAN CLEAR 47 31 53 NE6 30.03S  
LEWISTON, ID CLEAR 52 31 44 NE6 30.02S  
WALLA WALLA CLEAR 50 37 61 NE10 29.98F  
PENDLETON, OR CLEAR 49 38 65 E13 29.95F  

 
 
 
CLICK HERE TO GO TO PREVIOUS BULLETINS.

The Nexlab WA Page Main Text Page